Location: Bottenau
(48.5138°N, 8.0462°E)
Time: 05:02:43
(UTC+00:00)

BREEZE-M DEB (TANK) - Pass Details

Date: 18 April 2021
Orbit: 317 x 14227 km, 49.6° (Epoch: 09 May)

Event Time Altitude Azimuth Distance (km) Brightness Sun altitude
Rises 20:03:27 0° 283° (WNW) 2,378 7.1 -15.4°
Reaches altitude 10° 20:05:32 10° 283° (WNW) 1,278 5.5 -15.7°
Maximum altitude 20:07:50 81° 194° (SSW) 331 1.4 -16.0°
Enters shadow 20:08:11 59° 121° (ESE) 384 1.5 -16.0°
